This demonstration page uses our WeatherBlox Daily Observations layout. Learn more.

Left ArrowRight Arrow

38.20091, -84.87328

Hourly Observations for July 9, 2018

Temp ( °F °C ) Dew Point ( °F °C ) Humidity (%) Winds ( mph kmh ) Pressure ( in mb ) Visibility ( mi km ) Precip ( " mm )
12:53 am 00:53 Clear 70 21.1 65 18.3 84 84 Calm 30.22 1023 10 16 0.00 0.00
1:53 am 01:53 Clear 70 21.1 65 18.3 84 84 Calm 30.21 1023 10 16 0.00 0.00
2:53 am 02:53 Clear 69 20.6 65 18.3 87 87 Calm 30.21 1023 10 16 0.00 0.00
3:53 am 03:53 Clear 67 19.4 64 17.8 91 91 Calm 30.22 1023 10 16 0.00 0.00
4:53 am 04:53 Clear 67 19.4 64 17.8 91 91 Calm 30.22 1023 10 16 0.00 0.00
5:53 am 05:53 Clear 67 19.4 64 17.8 91 91 Calm 30.22 1024 10 16 0.00 0.00
6:53 am 06:53 Sunny 67 19.4 64 17.8 91 91 Calm 30.23 1024 10 16 0.00 0.00
7:53 am 07:53 Sunny 71 21.7 67 19.4 87 87 Calm 30.24 1024 10 16 0.00 0.00
8:53 am 08:53 Sunny 77 25 67 19.4 71 71 Calm 30.25 1024 10 16 0.00 0.00
9:53 am 09:53 Sunny 81 27.2 66 18.9 61 61 SW 7 11 30.24 1024 10 16 0.00 0.00
10:53 am 10:53 Partly Cloudy 83 28.3 68 20 61 61 SW 7 11 30.24 1024 10 16 0.00 0.00
11:53 am 11:53 Mostly Sunny 86 30 71 21.7 61 61 SW 5 7 30.24 1024 10 16 0.00 0.00
12:53 pm 12:53 Mostly Cloudy 87 30.6 71 21.7 59 59 Calm 30.22 1023 10 16 0.00 0.00
1:53 pm 13:53 Mostly Cloudy 87 30.6 70 21.1 57 57 WSW 6 9 30.21 1023 10 16 0.00 0.00
2:53 pm 14:53 Partly Cloudy 90 32.2 72 22.2 56 56 VRB 3 6 30.19 1022 10 16 0.00 0.00
3:53 pm 15:53 Partly Cloudy 87 30.6 70 21.1 57 57 SW 6 9 30.17 1022 10 16 0.00 0.00
4:53 pm 16:53 Sunny 89 31.7 71 21.7 55 55 WSW 6 9 30.15 1021 10 16 0.00 0.00
5:53 pm 17:53 Sunny 89 31.7 72 22.2 57 57 WSW 6 9 30.15 1021 10 16 0.00 0.00
6:53 pm 18:53 Mostly Sunny 84 28.9 70 21.1 63 63 SW 8 13 30.14 1021 10 16 0.00 0.00
7:26 pm 19:26 Mostly Cloudy with Thunderstorms 86 30 71 21.7 61 61 undefined N/A 30.15 1021 10 16 0.00 0.00
7:41 pm 19:41 Cloudy with Nearby Thunderstorms 83 28.3 71 21.7 67 67 E 6 9 30.15 1021 10 16 0.00 0.00
7:53 pm 19:53 Cloudy with Nearby Thunderstorms 82 27.8 70 21.1 67 67 VRB 5 7 30.14 1021 10 16 0.00 0.00
8:08 pm 20:08 Cloudy 82 27.8 70 21.1 67 67 NE 6 9 30.15 1021 10 16 0.00 0.00
8:53 pm 20:53 Partly Cloudy 80 26.7 71 21.7 74 74 Calm 30.13 1020 10 16 0.00 0.00
9:53 pm 21:53 Clear 78 25.6 72 22.2 82 82 Calm 30.14 1021 10 16 0.00 0.00
10:53 pm 22:53 Clear 77 25 71 21.7 82 82 Calm 30.15 1021 10 16 0.00 0.00
11:53 pm 23:53 Clear 76 24.4 71 21.7 85 85 Calm 30.14 1021 10 16 0.00 0.00

Powered by AerisWeather